Home > Weather > Pali > Past weeks

Flag for India Past Weather in Pali, Rajasthan, India — Yesterday and Last 2 Weeks

Now
79 °F

Thunderstorms. Partly sunny.


Feels Like: 82 °F
Forecast: 87 / 102 °F
Wind: 10 mph from North

Location: Jaipur / Sanganer

Current Time: Jul 1, 2016 at 9:57:20 AM

Latest Report: Jul 1, 2016 at 9:00 AM


Visibility: 1 mi

Pressure: 29.62 "Hg

Humidity: 89%

Dew Point: 75 °F

Location of PaliLocation

Past Weather in Pali — Graph

°F

Pali Temperature Yesterday

Maximum temperature yesterday: 106 °F (at 3:00 PM)
Minimum temperature yesterday: 73 °F (at 3:00 AM)
Average temperature yesterday: 96 °F

High & Low Weather Summary for the Past Weeks

 TemperatureHumidityPressure
High108 °F (Jun 17, 4:30 PM)100% (Jun 30, 3:00 AM)29.74 "Hg (Jun 30, 3:00 AM)
Low73 °F (Jun 30, 3:00 AM)19% (Jun 17, 5:00 PM)29.47 "Hg (Jun 16, 5:00 PM)
Average93 °F50%29.59 "Hg
* Reported Jun 16 9:00 AM — Jul 1 8:30 AM, Pali, Weather by CustomWeather, © 2016

Note: Actual official high and low records may vary slightly from our data, if they occured in-between our weather recording intervals... More about our weather records

Advertising

Pali Weather History for the Previous 24 Hours

Scroll right to see more
 ConditionsComfort  
Time TempWeatherWind HumidityBarometerVisibility
8:30 AM
Fri, Jul 1
79 °FThunderstorms. Partly sunny.8 mph89%29.62 "Hg1 mi
8:00 AM79 °FThunderstorms. Partly sunny.12 mph89%29.62 "Hg1 mi
7:00 AM81 °FRain. Broken clouds.14 mph94%29.59 "Hg1 mi
6:30 AM84 °FDrizzle. Broken clouds.9 mph79%29.56 "Hg2 mi
6:00 AM84 °FPartly cloudy.9 mph79%29.53 "Hg2 mi
5:30 AM84 °FPassing clouds.14 mph74%29.50 "Hg2 mi
5:00 AM88 °FPassing clouds.10 mph66%29.50 "Hg2 mi
4:00 AM88 °FPassing clouds.10 mph66%29.50 "Hg2 mi
2:00 AM91 °FPassing clouds.13 mph59%29.50 "Hg2 mi
1:00 AM91 °FPassing clouds.2 mph56%29.53 "Hg2 mi
12:00 AM93 °FPassing clouds.8 mph56%29.56 "Hg2 mi
11:30 PM
Thu, Jun 30
93 °FPassing clouds.9 mph56%29.56 "Hg2 mi
11:00 PM93 °FPassing clouds.8 mph56%29.56 "Hg2 mi
10:00 PM95 °FPassing clouds.9 mph50%29.53 "Hg2 mi
9:30 PM97 °FPassing clouds.6 mph47%29.53 "Hg2 mi
9:00 PM97 °FPassing clouds.9 mph44%29.53 "Hg2 mi
8:30 PM99 °FPassing clouds.8 mph42%29.50 "Hg2 mi
8:00 PM99 °FPassing clouds.8 mph42%29.50 "Hg3 mi
7:00 PM100 °FScattered clouds.12 mph40%29.50 "Hg3 mi
6:30 PM99 °FScattered clouds.10 mph42%29.47 "Hg3 mi
4:30 PM106 °FPartly sunny.2 mph28%29.47 "Hg4 mi
4:00 PM106 °FPartly sunny.3 mph28%29.50 "Hg4 mi
3:00 PM106 °FPartly sunny.6 mph30%29.50 "Hg4 mi
2:30 PM102 °FPartly sunny.5 mph33%29.53 "Hg4 mi
2:00 PM104 °FPartly sunny.6 mph31%29.53 "Hg4 mi
1:30 PM102 °FPartly sunny.3 mph33%29.56 "Hg4 mi
1:00 PM104 °FPartly sunny.6 mph33%29.56 "Hg4 mi
12:30 PM102 °FPartly sunny.6 mph37%29.59 "Hg4 mi
12:00 PM100 °FPartly sunny.5 mph40%29.59 "Hg4 mi
11:30 AM100 °FPartly sunny.5 mph40%29.59 "Hg4 mi
11:00 AM99 °FScattered clouds.6 mph42%29.59 "Hg4 mi
10:30 AM99 °FPassing clouds.5 mph44%29.59 "Hg4 mi
10:00 AM99 °FHaze.8 mph44%29.59 "Hg3 mi
9:30 AM97 °FHaze.8 mph47%29.62 "Hg3 mi
9:00 AM95 °FHaze.9 mph50%29.62 "Hg3 mi
Weather by CustomWeather, © 2016

See weather overviewHow to use our weather pages